Showing default

POLYTECH UNIVERSE-4, 61747

Orbit data source: Space-Track

POLYTECH UNIVERSE-4, 61747 is a payload satellite owned by Polytech (CIS) in SSO that was launched on Mon, 04 Nov 2024 UTC via a SOYUZ-2-1B launch vehicle from the Vostochny Cosmodrome (VOSTO). Payload-class satellites include a variety of spacecraft equipped with specific instruments for various scientific and technological missions. These include communications satellites like Starlink; space stations such as the ISS; scientific satellites like the Hubble; Earth observation satellites from companies like Planet Labs, Umbra, and HawkEye 360; GPS; miniature CubeSats for education and research; and military/defense satellites.

Loading next visibility...
Identifier
61747, 2024-199N
Orbit
SSO
Last TLE update
9 hours ago
Origin
Manufacturer
STTs
Mission
Operational spacecraft
Bus & Motor
CUBESAT 3U, Unknown motor
Mass
5.07 kg wet, 5.07 kg dry
Launch date (UTC)
2024-11-04 (6 months ago)
Launch vehicle
SOYUZ-2-1B
Launch site
Vostochny Cosmodrome (VOSTO)
Object type
Payload
Rocket body
Debris
Shape & HBR
Unknown
Radar Cross Section
Small (<0.1 m²)

Expand to show TLE details & history

TLE from 9 hours ago
0 POLYTECH UNIVERSE-4
1 61747U 24199N   25132.87342738  .00011200  00000-0  37130-3 0  9996
2 61747  97.3606   1.6514 0010531 281.9744  78.0317 15.31385360 75845
Epoch: 2025-05-12T20:57Z
Definitive object data (Epoch: 2025-05-12T20:57:44.125Z)
Latitude
-0°
Longitude
176.33728°
Altitude
473.296 km
Speed
7.63 km/s
True Right ascension
00h 06m 36s
True Declination
0° 00' 00"
Sunlit
Object was in daylight at TLE epoch
Visualization TLE readout
Latitude
23.221°
Longitude
-0.15065°
Altitude
478.677 km
Speed
7.626 km/s
Apparent Right ascension
09h 12m 42s
Apparent Declination
-27° 37' 04"
Sunlit
Object is in full shadow
Visualization observer readout
Local Sidereal Time
13:53:36
Azimuth
236.69° WSW
Elevation
-3.872°
Doppler factor
1
Orbital elements
Apogee altitude
475.837 km
Perigee altitude
461.416 km
Semi-major axis
6,846.764 km
Eccentricity
0.0010531
Inclination
97.3606°
RAAN
1.6514°
Arg. of periapsis
281.9744°
True anomaly
78.14979°
Mean anomaly
78.0317°
Eccentric anomaly
78.09074°
Mean motion
3.83103 °/min
BSTAR
0.0003713
Orbital period
93.97 mins
Loading maneuver chart data...
Loading SW <> Apogee altitude chart data...
Loading historical data...
Loading historical data...
Loading historical data...
Loading historical data...
Loading historical data...
Loading historical data...
Loading historical data...

POLYTECH UNIVERSE-4 Visibility forecast

Observer location: undefined°, undefined°

Span
Click to sort rows by Start time (UTC) header in descending order
Start Az.
Max El. time (UTC)
Max El. Az.
Max El.
End time (UTC)
End Az.
4 mins2025-05-13 14:22:09.274Z104.677° ESE2025-05-13 14:24:09.274Z66.612° ENE16.216°2025-05-13 14:26:09.274Z30.048° NE
4 mins2025-05-13 15:55:09.274Z218.225° SW2025-05-13 15:57:09.274Z267.023° W23.512°2025-05-13 15:59:09.274Z312.268° NW
|